User: anonymous   Login
Location: Unspecified
(0.0000°N, 0.0000°E)
Time: 21:54:07
(UTC+00:00)
Language:

TIANWANG 1A (TW-1A) - Orbit

View from above orbital plane
View from above orbital plane
View from above satellite
View from above satellite

Ground track
Ground track

The orbit data is extracted from the following two-line orbital elements,

1 40928U 15051D   17082.86919042 +.00003527 +00000-0 +10472-3 0  9996
2 40928 097.2377 120.2119 0014412 138.7100 344.0013 15.35354689083609
Epoch (UTC): 23 March 2017 20:51:38
Eccentricity: 0.0014412
inclination: 97.2377°
perigee height: 450 km
apogee height: 470 km
right ascension of ascending node: 120.2119°
argument of perigee: 138.7100°
revolutions per day: 15.35354689
mean anomaly at epoch: 344.0013°
orbit number at epoch: 8360

The dashed part of the orbit path shows where the satellite is in the earth's shadow,  

DLR